contact:dominique.lefevre@mio.osupytheas.fr, maurice.libes@osupytheas.fr, didier.mallarino@osupytheas.fr
Project:EMSO http://www.emso-fr.org/EMSO-France
Depth: 2436.0 m
Title:EMSO Ligure Ouest : Data MII capteur AQUADOPP
Date,Latitude,Longitude,X_East,Y_North,Z_Up,Amplitude_X,Amplitude_Y,Amplitude_Z,Batterie,SoundSpeed,Heading,Pitch,Roll,Pressure,TIS,Speed,Direction
, degrees North, degrees East, m.s-1, m.s-1,m.s-1, 1, 1, 1, Volt, m.s-1, degree, degree, degree, dbar, degree_C, m.s-1, degree
2019-11-15T00:04:03,42.805,6.029,-0.022,0.035,-0.037,99.0,108.0,98.0,13.4,1505.3,328.3,-0.8,1.8,2470.171,13.31,0.041,327.8
2019-11-15T00:07:03,42.805,6.029,-0.015,0.008,-0.044,100.0,106.0,98.0,13.3,1505.3,324.8,-0.7,1.8,2470.176,13.32,0.017,298.1
2019-11-15T00:10:03,42.805,6.029,-0.03,0.024,-0.01,100.0,107.0,97.0,13.4,1505.3,328.5,-0.8,1.8,2470.161,13.32,0.038,308.7
2019-11-15T00:13:03,42.805,6.029,0.0,0.015,0.0,100.0,105.0,97.0,13.4,1505.3,327.4,-0.7,1.8,2470.159,13.33,0.015,0.0
2019-11-15T00:16:03,42.805,6.029,0.014,0.039,0.0,99.0,107.0,98.0,13.3,1505.3,325.0,-0.7,1.8,2470.13,13.33,0.041,19.7
2019-11-15T00:19:03,42.805,6.029,-0.014,0.0,-0.011,100.0,105.0,98.0,13.4,1505.3,324.6,-0.7,1.8,2470.165,13.33,0.014,270.0
2019-11-15T00:22:03,42.805,6.029,-0.006,0.01,-0.02,100.0,107.0,97.0,13.4,1505.3,323.9,-0.7,1.9,2470.157,13.33,0.011,329.0
2019-11-15T00:25:03,42.805,6.029,-0.035,0.02,-0.033,99.0,109.0,98.0,13.3,1505.3,327.8,-0.7,1.8,2470.143,13.33,0.04,299.7
2019-11-15T00:28:03,42.805,6.029,-0.001,0.004,0.009,101.0,107.0,98.0,13.4,1505.3,326.4,-0.7,1.8,2470.118,13.33,0.004,346.0
2019-11-15T00:31:03,42.805,6.029,-0.001,0.017,-0.028,101.0,107.0,98.0,13.4,1505.3,326.6,-0.7,1.9,2470.136,13.33,0.017,356.6
2019-11-15T00:34:03,42.805,6.029,-0.01,0.036,-0.024,100.0,106.0,98.0,13.4,1505.3,326.6,-0.7,1.8,2470.154,13.33,0.037,344.5
2019-11-15T00:37:03,42.805,6.029,-0.021,0.026,-0.023,100.0,107.0,98.0,13.4,1505.3,327.4,-0.7,1.8,2470.167,13.33,0.033,321.1
2019-11-15T00:40:03,42.805,6.029,-0.008,0.021,0.007,100.0,107.0,98.0,13.3,1505.3,324.6,-0.7,1.8,2470.105,13.33,0.022,339.1
2019-11-15T00:43:03,42.805,6.029,0.017,0.019,0.003,100.0,107.0,98.0,13.4,1505.3,324.5,-0.7,1.9,2470.145,13.33,0.025,41.8
2019-11-15T00:46:03,42.805,6.029,-0.012,0.014,-0.025,100.0,108.0,98.0,13.4,1505.3,328.5,-0.7,1.8,2470.137,13.33,0.018,319.4
2019-11-15T00:49:03,42.805,6.029,-0.018,0.051,-0.021,100.0,109.0,98.0,13.4,1505.3,324.0,-0.7,1.9,2470.108,13.33,0.054,340.6
2019-11-15T00:52:03,42.805,6.029,-0.024,0.027,-0.01,101.0,110.0,98.0,13.4,1505.3,326.2,-0.8,1.8,2470.135,13.33,0.036,318.4
2019-11-15T00:55:03,42.805,6.029,-0.026,0.032,0.003,100.0,109.0,98.0,13.4,1505.3,326.6,-0.7,1.8,2470.117,13.33,0.041,320.9
2019-11-15T00:58:03,42.805,6.029,-0.002,0.039,0.002,99.0,109.0,98.0,13.4,1505.3,325.2,-0.7,1.9,2470.123,13.33,0.039,357.1
2019-11-15T01:04:03,42.805,6.029,-0.007,0.01,-0.047,100.0,109.0,98.0,13.4,1505.3,324.9,-0.7,1.8,2470.162,13.31,0.012,325.0
2019-11-15T01:07:04,42.805,6.029,-0.003,0.023,-0.019,101.0,108.0,98.0,13.3,1505.3,323.6,-0.7,1.9,2470.123,13.32,0.023,352.6
2019-11-15T01:10:03,42.805,6.029,-0.008,0.024,0.001,99.0,110.0,98.0,13.4,1505.3,326.7,-0.7,1.8,2470.107,13.32,0.025,341.6
2019-11-15T01:13:03,42.805,6.029,-0.026,0.043,0.006,100.0,110.0,100.0,13.4,1505.3,323.7,-0.7,1.8,2470.149,13.33,0.05,328.8
2019-11-15T01:16:03,42.805,6.029,-0.004,0.055,0.003,100.0,110.0,98.0,13.3,1505.3,325.4,-0.7,1.9,2470.198,13.33,0.055,355.8
2019-11-15T01:19:03,42.805,6.029,0.0,0.04,-0.003,100.0,109.0,98.0,13.4,1505.3,323.2,-0.7,1.8,2470.129,13.33,0.04,0.0
2019-11-15T01:22:03,42.805,6.029,-0.013,0.026,-0.029,99.0,110.0,98.0,13.4,1505.3,326.7,-0.7,1.9,2470.16,13.33,0.029,333.4
2019-11-15T01:25:03,42.805,6.029,-0.011,0.03,0.011,100.0,111.0,98.0,13.4,1505.3,325.3,-0.7,1.8,2470.111,13.33,0.031,339.9
2019-11-15T01:28:03,42.805,6.029,0.003,0.038,0.014,100.0,110.0,98.0,13.4,1505.3,328.0,-0.7,1.8,2470.114,13.33,0.038,4.5
2019-11-15T01:31:03,42.805,6.029,0.019,0.005,0.004,99.0,109.0,98.0,13.3,1505.3,325.6,-0.7,1.8,2470.126,13.33,0.019,75.3
2019-11-15T01:34:03,42.805,6.029,-0.041,0.023,-0.038,101.0,111.0,97.0,13.3,1505.3,327.8,-0.7,1.8,2470.134,13.33,0.047,299.3
2019-11-15T01:37:03,42.805,6.029,-0.029,0.028,-0.003,101.0,110.0,97.0,13.4,1505.3,327.2,-0.7,1.8,2470.149,13.33,0.04,314.0
2019-11-15T01:40:03,42.805,6.029,-0.019,0.028,0.0,101.0,110.0,98.0,13.4,1505.3,328.8,-0.7,1.9,2470.11,13.33,0.033,325.8
2019-11-15T01:43:03,42.805,6.029,0.015,0.031,-0.002,101.0,111.0,98.0,13.4,1505.3,323.9,-0.7,1.8,2470.109,13.33,0.034,25.8
2019-11-15T01:46:03,42.805,6.029,-0.009,0.02,-0.034,100.0,116.0,98.0,13.4,1505.3,324.7,-0.7,1.8,2470.081,13.33,0.021,335.8
2019-11-15T01:49:03,42.805,6.029,-0.033,0.04,-0.026,98.0,110.0,99.0,13.3,1505.3,324.5,-0.7,1.9,2470.083,13.33,0.051,320.5
2019-11-15T01:52:03,42.805,6.029,0.001,0.045,0.013,100.0,111.0,98.0,13.4,1505.3,325.0,-0.7,1.8,2470.114,13.33,0.045,1.3
2019-11-15T01:55:03,42.805,6.029,0.0,0.016,-0.004,101.0,109.0,98.0,13.4,1505.3,324.1,-0.7,1.8,2470.108,13.33,0.016,0.0
2019-11-15T01:58:03,42.805,6.029,-0.001,0.041,-0.003,100.0,111.0,98.0,13.4,1505.3,325.9,-0.7,1.8,2470.065,13.33,0.041,358.6
2019-11-15T02:04:03,42.805,6.029,0.002,0.021,-0.025,100.0,109.0,98.0,13.3,1505.3,327.0,-0.7,1.8,2470.151,13.31,0.021,5.4
2019-11-15T02:07:03,42.805,6.029,-0.01,0.029,-0.022,101.0,110.0,98.0,13.4,1505.3,327.7,-0.7,1.8,2470.122,13.32,0.03,341.0
2019-11-15T02:10:03,42.805,6.029,-0.009,0.03,0.019,99.0,111.0,98.0,13.3,1505.3,324.2,-0.7,1.8,2470.164,13.33,0.031,343.3
2019-11-15T02:13:03,42.805,6.029,0.004,0.025,-0.017,100.0,111.0,98.0,13.3,1505.3,324.9,-0.7,1.8,2470.134,13.33,0.025,9.1
2019-11-15T02:16:03,42.805,6.029,-0.014,0.009,-0.006,100.0,112.0,98.0,13.4,1505.3,325.9,-0.7,1.8,2470.132,13.33,0.016,302.7
2019-11-15T02:19:03,42.805,6.029,-0.006,0.02,-0.057,100.0,111.0,98.0,13.4,1505.3,326.5,-0.7,1.8,2470.148,13.33,0.02,343.3
2019-11-15T02:22:03,42.805,6.029,-0.023,0.027,0.003,102.0,111.0,99.0,13.4,1505.3,327.5,-0.7,1.8,2470.065,13.33,0.035,319.6
2019-11-15T02:25:03,42.805,6.029,0.009,0.034,0.007,102.0,113.0,99.0,13.4,1505.3,326.6,-0.7,1.8,2470.103,13.33,0.035,14.8
2019-11-15T02:28:03,42.805,6.029,0.01,0.035,-0.047,100.0,112.0,98.0,13.4,1505.3,325.8,-0.7,1.8,2470.089,13.33,0.036,15.9
2019-11-15T02:31:03,42.805,6.029,-0.02,0.044,-0.015,100.0,113.0,98.0,13.3,1505.3,328.0,-0.7,1.8,2470.108,13.33,0.048,335.6
2019-11-15T02:34:03,42.805,6.029,-0.027,0.028,-0.059,100.0,110.0,99.0,13.4,1505.4,328.6,-0.7,1.8,2470.091,13.34,0.038,316.0
2019-11-15T02:37:03,42.805,6.029,-0.006,0.015,-0.016,101.0,110.0,99.0,13.4,1505.4,323.8,-0.7,1.8,2470.103,13.34,0.016,338.2
2019-11-15T02:40:03,42.805,6.029,-0.022,0.026,-0.006,100.0,110.0,98.0,13.3,1505.4,325.7,-0.7,1.8,2470.098,13.34,0.034,319.8
2019-11-15T02:43:03,42.805,6.029,0.011,0.025,-0.024,100.0,111.0,98.0,13.3,1505.4,324.9,-0.7,1.9,2470.104,13.34,0.027,23.7
2019-11-15T02:46:03,42.805,6.029,-0.014,0.023,-0.031,100.0,111.0,98.0,13.4,1505.3,326.5,-0.7,1.8,2470.122,13.33,0.026,328.7
2019-11-15T02:49:03,42.805,6.029,-0.008,0.061,0.015,100.0,111.0,98.0,13.3,1505.4,324.0,-0.8,1.9,2470.12,13.34,0.061,352.5
2019-11-15T02:55:03,42.805,6.029,-0.001,0.029,0.026,100.0,111.0,99.0,13.4,1505.3,328.1,-0.8,1.8,2470.137,13.31,0.029,358.0
2019-11-15T02:58:03,42.805,6.029,-0.011,0.026,-0.016,101.0,112.0,98.0,13.4,1505.3,323.3,-0.7,1.8,2470.14,13.32,0.028,337.1
2019-11-15T03:04:03,42.805,6.029,-0.027,0.037,-0.029,100.0,112.0,98.0,13.3,1505.3,324.1,-0.7,1.8,2470.151,13.31,0.045,323.9
2019-11-15T03:07:03,42.805,6.029,-0.007,0.023,-0.011,100.0,111.0,97.0,13.4,1505.3,326.6,-0.7,1.8,2470.173,13.32,0.024,343.1
2019-11-15T03:10:03,42.805,6.029,-0.002,0.026,-0.038,100.0,111.0,99.0,13.4,1505.3,326.5,-0.7,1.8,2470.148,13.32,0.026,355.6
2019-11-15T03:13:03,42.805,6.029,-0.012,0.028,-0.028,100.0,111.0,98.0,13.4,1505.3,323.7,-0.7,1.8,2470.127,13.33,0.03,336.8
2019-11-15T03:16:03,42.805,6.029,0.008,0.04,-0.013,101.0,110.0,97.0,13.4,1505.3,327.8,-0.7,1.8,2470.138,13.33,0.04,11.3
2019-11-15T03:19:03,42.805,6.029,0.008,0.021,-0.022,101.0,110.0,98.0,13.3,1505.3,326.9,-0.7,1.8,2470.123,13.33,0.022,20.9
2019-11-15T03:22:03,42.805,6.029,0.021,0.022,0.013,99.0,112.0,99.0,13.4,1505.3,323.4,-0.7,1.9,2470.139,13.33,0.03,43.7
2019-11-15T03:25:03,42.805,6.029,-0.01,0.03,-0.007,100.0,112.0,98.0,13.4,1505.3,323.8,-0.7,1.8,2470.134,13.33,0.031,341.6
2019-11-15T03:28:03,42.805,6.029,0.018,0.035,-0.009,99.0,111.0,98.0,13.4,1505.3,327.1,-0.7,1.9,2470.174,13.33,0.039,27.2
2019-11-15T03:31:03,42.805,6.029,0.004,0.029,-0.009,101.0,111.0,97.0,13.4,1505.3,326.4,-0.7,1.8,2470.154,13.33,0.029,7.8
2019-11-15T03:34:03,42.805,6.029,-0.011,0.034,-0.012,100.0,111.0,99.0,13.4,1505.3,328.5,-0.7,1.8,2470.13,13.33,0.035,342.1
2019-11-15T03:37:03,42.805,6.029,-0.002,0.016,-0.012,100.0,111.0,98.0,13.4,1505.3,323.9,-0.7,1.9,2470.106,13.33,0.016,352.9
2019-11-15T03:40:03,42.805,6.029,0.003,0.031,-0.018,101.0,111.0,98.0,13.4,1505.3,327.1,-0.7,1.8,2470.129,13.33,0.031,5.5
2019-11-15T03:43:03,42.805,6.029,-0.006,0.019,-0.036,100.0,112.0,98.0,13.4,1505.3,325.4,-0.7,1.8,2470.18,13.33,0.019,342.5
2019-11-15T03:46:03,42.805,6.029,0.019,0.03,-0.005,101.0,110.0,97.0,13.3,1505.3,324.2,-0.7,1.9,2470.104,13.33,0.035,32.3
2019-11-15T03:49:03,42.805,6.029,0.034,0.024,-0.007,100.0,112.0,98.0,13.4,1505.3,324.8,-0.7,1.8,2470.115,13.33,0.041,54.8
2019-11-15T03:52:03,42.805,6.029,0.016,0.034,-0.018,100.0,112.0,97.0,13.3,1505.3,328.6,-0.7,1.8,2470.159,13.33,0.037,25.2
2019-11-15T03:55:03,42.805,6.029,0.002,0.04,-0.029,101.0,111.0,99.0,13.3,1505.3,324.6,-0.7,1.8,2470.122,13.33,0.04,2.9
2019-11-15T03:58:03,42.805,6.029,-0.002,0.017,-0.026,100.0,110.0,98.0,13.4,1505.3,325.5,-0.7,1.8,2470.144,13.33,0.017,353.3
2019-11-15T04:04:03,42.805,6.029,0.006,0.031,0.006,101.0,111.0,97.0,13.3,1505.3,324.1,-0.8,1.8,2470.186,13.31,0.031,11.0
2019-11-15T04:07:03,42.805,6.029,0.003,0.043,-0.047,100.0,111.0,98.0,13.3,1505.3,323.5,-0.7,1.8,2470.151,13.31,0.043,4.0
2019-11-15T04:10:03,42.805,6.029,0.008,0.026,-0.023,101.0,112.0,98.0,13.4,1505.3,326.3,-0.7,1.8,2470.134,13.32,0.027,17.1
2019-11-15T04:13:03,42.805,6.029,-0.005,0.022,-0.034,100.0,111.0,98.0,13.4,1505.3,328.0,-0.7,1.8,2470.108,13.32,0.022,347.2
2019-11-15T04:16:03,42.805,6.029,0.026,0.032,-0.014,100.0,111.0,99.0,13.4,1505.3,323.9,-0.7,1.9,2470.141,13.32,0.041,39.1
2019-11-15T04:19:03,42.805,6.029,0.005,0.04,-0.037,100.0,111.0,98.0,13.4,1505.3,326.7,-0.7,1.9,2470.12,13.32,0.04,7.1
2019-11-15T04:22:03,42.805,6.029,-0.009,0.025,-0.064,99.0,112.0,97.0,13.3,1505.3,326.3,-0.7,1.9,2470.145,13.32,0.026,340.2
2019-11-15T04:25:03,42.805,6.029,0.046,0.043,-0.011,100.0,112.0,98.0,13.4,1505.3,323.6,-0.7,1.8,2470.144,13.32,0.062,46.9
2019-11-15T04:28:03,42.805,6.029,0.035,0.056,-0.009,101.0,112.0,98.0,13.3,1505.3,325.9,-0.7,1.8,2470.161,13.32,0.066,32.0
2019-11-15T04:31:03,42.805,6.029,0.012,0.03,-0.028,101.0,111.0,99.0,13.4,1505.3,326.8,-0.7,1.8,2470.175,13.32,0.032,21.8
2019-11-15T04:34:03,42.805,6.029,0.018,0.032,-0.02,100.0,112.0,98.0,13.3,1505.3,326.8,-0.7,1.8,2470.143,13.32,0.036,29.4
2019-11-15T04:37:03,42.805,6.029,0.015,0.017,-0.005,101.0,111.0,99.0,13.3,1505.3,326.9,-0.7,1.8,2470.149,13.32,0.022,41.4
2019-11-15T04:40:03,42.805,6.029,-0.011,0.037,-0.034,100.0,111.0,99.0,13.4,1505.3,326.0,-0.8,1.8,2470.16,13.32,0.038,343.4
2019-11-15T04:43:03,42.805,6.029,0.0,0.033,-0.021,99.0,111.0,99.0,13.4,1505.3,326.7,-0.7,1.8,2470.18,13.32,0.033,0.0
2019-11-15T04:46:03,42.805,6.029,0.007,0.043,-0.023,100.0,112.0,99.0,13.4,1505.3,326.2,-0.7,1.8,2470.161,13.32,0.043,9.2
2019-11-15T04:49:03,42.805,6.029,0.023,0.019,-0.027,99.0,111.0,98.0,13.4,1505.3,326.3,-0.7,1.8,2470.176,13.32,0.029,50.4
2019-11-15T04:52:03,42.805,6.029,0.022,0.025,-0.064,101.0,113.0,98.0,13.4,1505.3,326.1,-0.7,1.8,2470.172,13.32,0.033,41.3
2019-11-15T04:55:03,42.805,6.029,0.02,0.002,-0.05,100.0,112.0,99.0,13.4,1505.3,325.3,-0.7,1.8,2470.176,13.32,0.02,84.3
2019-11-15T04:58:03,42.805,6.029,0.019,0.034,-0.007,100.0,111.0,99.0,13.3,1505.3,326.5,-0.7,1.8,2470.181,13.32,0.038,29.2
2019-11-15T05:04:03,42.805,6.029,0.026,0.018,-0.013,100.0,109.0,98.0,13.3,1505.2,325.5,-0.7,1.8,2470.248,13.3,0.031,55.3
2019-11-15T05:07:03,42.805,6.029,0.022,0.011,-0.03,100.0,109.0,98.0,13.3,1505.3,326.5,-0.7,1.9,2470.182,13.31,0.024,63.4
2019-11-15T05:10:03,42.805,6.029,0.021,0.015,-0.046,100.0,110.0,98.0,13.4,1505.3,327.7,-0.7,1.8,2470.195,13.32,0.025,54.5
2019-11-15T05:13:03,42.805,6.029,0.017,0.027,-0.03,100.0,110.0,98.0,13.4,1505.3,324.3,-0.8,1.8,2470.232,13.32,0.031,32.2
2019-11-15T05:16:03,42.805,6.029,0.032,0.028,0.003,99.0,109.0,99.0,13.4,1505.3,326.8,-0.7,1.9,2470.225,13.32,0.042,48.8
2019-11-15T05:19:03,42.805,6.029,0.027,0.018,-0.043,101.0,111.0,98.0,13.4,1505.3,323.2,-0.7,1.9,2470.182,13.32,0.032,56.3
2019-11-15T05:22:03,42.805,6.029,0.02,0.023,-0.024,101.0,109.0,99.0,13.3,1505.3,327.0,-0.7,1.8,2470.212,13.32,0.03,41.0
2019-11-15T05:25:03,42.805,6.029,0.015,0.016,-0.036,99.0,111.0,98.0,13.4,1505.3,327.9,-0.7,1.8,2470.206,13.32,0.021,43.1
2019-11-15T05:28:03,42.805,6.029,0.053,0.007,-0.019,100.0,109.0,98.0,13.3,1505.3,326.6,-0.7,1.8,2470.224,13.33,0.053,82.5
2019-11-15T05:31:03,42.805,6.029,0.016,0.024,-0.067,100.0,110.0,98.0,13.3,1505.3,327.3,-0.7,1.8,2470.231,13.33,0.028,33.7
2019-11-15T05:34:03,42.805,6.029,0.006,0.005,-0.045,100.0,110.0,99.0,13.4,1505.3,323.5,-0.7,1.8,2470.224,13.33,0.007,50.2
2019-11-15T05:37:03,42.805,6.029,0.026,0.041,-0.054,101.0,110.0,98.0,13.4,1505.3,324.9,-0.7,1.8,2470.218,13.33,0.048,32.4
2019-11-15T05:40:03,42.805,6.029,0.022,0.028,-0.016,100.0,109.0,98.0,13.4,1505.3,326.0,-0.7,1.9,2470.238,13.32,0.035,38.2
2019-11-15T05:43:03,42.805,6.029,0.03,0.027,-0.029,101.0,110.0,98.0,13.4,1505.3,324.8,-0.7,1.8,2470.215,13.32,0.04,48.0
2019-11-15T05:46:03,42.805,6.029,0.054,0.04,-0.007,100.0,109.0,98.0,13.4,1505.3,326.7,-0.7,1.8,2470.217,13.32,0.067,53.5
2019-11-15T05:49:03,42.805,6.029,0.063,0.039,0.007,100.0,110.0,98.0,13.4,1505.3,326.8,-0.7,1.8,2470.217,13.32,0.074,58.2
2019-11-15T05:52:03,42.805,6.029,0.027,0.027,-0.036,100.0,110.0,98.0,13.4,1505.3,328.0,-0.7,1.9,2470.208,13.32,0.038,45.0
2019-11-15T05:55:03,42.805,6.029,0.024,0.013,-0.032,99.0,109.0,98.0,13.3,1505.3,326.3,-0.7,1.8,2470.226,13.32,0.027,61.6
2019-11-15T05:58:03,42.805,6.029,0.031,0.029,-0.059,100.0,109.0,98.0,13.4,1505.3,327.6,-0.7,1.8,2470.24,13.32,0.042,46.9
2019-11-15T06:04:03,42.805,6.029,0.039,0.003,-0.051,100.0,109.0,98.0,13.3,1505.2,327.6,-0.7,1.8,2470.292,13.3,0.039,85.6
2019-11-15T06:07:03,42.805,6.029,0.035,0.028,0.013,101.0,109.0,98.0,13.4,1505.3,326.8,-0.7,1.9,2470.27,13.31,0.044,51.3
2019-11-15T06:10:03,42.805,6.029,0.042,0.018,-0.029,101.0,107.0,98.0,13.4,1505.3,327.6,-0.7,1.8,2470.243,13.32,0.045,66.8
2019-11-15T06:13:03,42.805,6.029,0.04,0.01,-0.021,101.0,108.0,98.0,13.4,1505.3,326.0,-0.7,1.9,2470.26,13.32,0.041,76.0
2019-11-15T06:16:03,42.805,6.029,0.035,0.03,-0.03,100.0,108.0,98.0,13.4,1505.3,328.7,-0.7,1.8,2470.269,13.32,0.046,49.4
2019-11-15T06:19:03,42.805,6.029,0.024,0.037,-0.019,100.0,109.0,98.0,13.3,1505.3,326.0,-0.7,1.8,2470.241,13.32,0.044,33.0
2019-11-15T06:22:03,42.805,6.029,0.015,0.013,-0.047,100.0,108.0,99.0,13.4,1505.3,324.4,-0.7,1.8,2470.236,13.32,0.019,49.1
2019-11-15T06:25:03,42.805,6.029,0.03,0.006,-0.031,101.0,109.0,97.0,13.4,1505.3,325.5,-0.7,1.8,2470.222,13.33,0.03,78.7
2019-11-15T06:28:03,42.805,6.029,0.024,0.034,-0.034,100.0,109.0,99.0,13.4,1505.3,326.5,-0.7,1.8,2470.249,13.32,0.041,35.2
2019-11-15T06:31:03,42.805,6.029,0.019,0.037,-0.038,100.0,109.0,98.0,13.4,1505.3,325.0,-0.7,1.9,2470.288,13.33,0.041,27.2
2019-11-15T06:34:03,42.805,6.029,0.027,0.018,-0.059,101.0,108.0,99.0,13.3,1505.3,324.4,-0.7,1.8,2470.254,13.33,0.032,56.3
2019-11-15T06:37:03,42.805,6.029,0.016,0.035,-0.068,100.0,109.0,97.0,13.3,1505.3,326.0,-0.7,1.8,2470.32,13.33,0.038,24.6
2019-11-15T06:40:03,42.805,6.029,-0.005,0.021,-0.054,101.0,108.0,98.0,13.4,1505.3,327.8,-0.7,1.8,2470.292,13.33,0.021,346.6
2019-11-15T06:43:03,42.805,6.029,0.027,0.031,-0.042,100.0,109.0,98.0,13.4,1505.3,325.1,-0.7,1.8,2470.288,13.33,0.041,41.1
2019-11-15T06:46:03,42.805,6.029,0.026,0.022,-0.034,101.0,107.0,99.0,13.4,1505.3,326.4,-0.7,1.8,2470.281,13.33,0.034,49.8
2019-11-15T06:49:03,42.805,6.029,0.038,0.019,-0.047,101.0,108.0,99.0,13.4,1505.3,327.8,-0.7,1.8,2470.279,13.33,0.042,63.4
2019-11-15T06:52:03,42.805,6.029,0.02,0.029,-0.014,100.0,108.0,98.0,13.4,1505.3,327.9,-0.8,1.8,2470.333,13.33,0.035,34.6
2019-11-15T06:55:03,42.805,6.029,0.018,0.032,-0.057,101.0,107.0,98.0,13.4,1505.3,326.9,-0.7,1.8,2470.267,13.33,0.036,29.4
2019-11-15T06:58:03,42.805,6.029,0.031,0.008,-0.018,100.0,109.0,98.0,13.4,1505.3,324.0,-0.7,1.9,2470.263,13.33,0.032,75.5
2019-11-15T07:04:03,42.805,6.029,0.015,0.008,-0.05,101.0,107.0,98.0,13.3,1505.3,326.8,-0.8,1.8,2470.337,13.31,0.017,61.9
2019-11-15T07:07:03,42.805,6.029,0.034,0.017,-0.038,101.0,107.0,99.0,13.3,1505.3,326.0,-0.7,1.8,2470.352,13.31,0.038,63.4
2019-11-15T07:10:03,42.805,6.029,0.038,0.04,-0.003,100.0,107.0,99.0,13.3,1505.3,324.7,-0.7,1.8,2470.288,13.32,0.055,43.5
2019-11-15T07:13:03,42.805,6.029,0.032,0.036,-0.003,100.0,108.0,99.0,13.4,1505.3,324.4,-0.7,1.8,2470.294,13.32,0.048,41.6
2019-11-15T07:16:03,42.805,6.029,0.012,0.022,-0.042,100.0,107.0,99.0,13.4,1505.3,324.9,-0.7,1.8,2470.355,13.32,0.025,28.6
2019-11-15T07:22:03,42.805,6.029,0.034,0.024,-0.034,101.0,107.0,99.0,13.3,1505.3,328.4,-0.7,1.8,2470.359,13.31,0.041,54.8
2019-11-15T07:25:03,42.805,6.029,0.041,0.039,-0.005,99.0,107.0,100.0,13.4,1505.3,325.0,-0.7,1.8,2470.334,13.31,0.056,46.4
2019-11-15T07:28:03,42.805,6.029,0.03,0.034,-0.034,101.0,107.0,98.0,13.4,1505.3,328.5,-0.7,1.8,2470.374,13.32,0.045,41.4
2019-11-15T07:31:03,42.805,6.029,0.034,0.002,-0.016,100.0,107.0,99.0,13.4,1505.3,326.0,-0.8,1.8,2470.327,13.32,0.034,86.6
2019-11-15T07:34:03,42.805,6.029,0.0,0.027,-0.034,100.0,108.0,98.0,13.3,1505.3,327.4,-0.7,1.8,2470.349,13.32,0.026,0.0
2019-11-15T07:37:03,42.805,6.029,0.028,0.033,-0.067,101.0,107.0,98.0,13.4,1505.3,324.9,-0.7,1.8,2470.331,13.32,0.043,40.3
2019-11-15T07:40:03,42.805,6.029,0.041,0.021,-0.028,100.0,106.0,99.0,13.3,1505.3,326.8,-0.7,1.8,2470.359,13.32,0.046,62.9
2019-11-15T07:43:03,42.805,6.029,0.046,0.024,-0.032,100.0,106.0,99.0,13.3,1505.3,324.9,-0.8,1.8,2470.31,13.33,0.051,62.4
2019-11-15T07:46:03,42.805,6.029,0.032,0.033,-0.018,101.0,107.0,99.0,13.4,1505.3,327.7,-0.7,1.8,2470.344,13.33,0.045,44.1
2019-11-15T07:49:03,42.805,6.029,0.049,0.023,-0.028,101.0,108.0,98.0,13.4,1505.3,326.6,-0.7,1.8,2470.355,13.33,0.054,64.9
2019-11-15T07:52:03,42.805,6.029,0.035,0.017,0.0,100.0,108.0,98.0,13.4,1505.3,326.3,-0.7,1.8,2470.379,13.33,0.038,64.1
2019-11-15T07:55:03,42.805,6.029,0.007,0.004,-0.062,99.0,107.0,100.0,13.4,1505.3,327.1,-0.7,1.8,2470.288,13.33,0.008,60.3
2019-11-15T07:58:03,42.805,6.029,0.016,0.011,-0.06,102.0,107.0,98.0,13.4,1505.3,326.3,-0.7,1.8,2470.336,13.33,0.019,55.5
2019-11-15T08:04:03,42.805,6.029,0.027,0.023,-0.056,100.0,106.0,98.0,13.4,1505.3,324.4,-0.7,1.8,2470.356,13.31,0.035,49.6
2019-11-15T08:07:03,42.805,6.029,0.027,0.018,-0.031,101.0,107.0,98.0,13.4,1505.3,322.8,-0.8,1.8,2470.393,13.31,0.032,56.3
2019-11-15T08:10:03,42.805,6.029,0.059,0.046,-0.015,101.0,106.0,99.0,13.4,1505.3,324.9,-0.7,1.8,2470.354,13.32,0.074,52.1
2019-11-15T08:13:03,42.805,6.029,0.023,0.014,-0.075,100.0,107.0,98.0,13.4,1505.3,327.8,-0.7,1.8,2470.367,13.32,0.026,58.7
2019-11-15T08:16:03,42.805,6.029,0.067,0.012,-0.042,100.0,105.0,99.0,13.4,1505.3,325.0,-0.7,1.8,2470.371,13.32,0.068,79.8
2019-11-15T08:19:03,42.805,6.029,0.018,0.024,-0.021,100.0,106.0,98.0,13.3,1505.3,324.5,-0.7,1.8,2470.368,13.33,0.03,36.9
2019-11-15T08:22:03,42.805,6.029,0.017,0.023,-0.03,100.0,106.0,98.0,13.4,1505.3,324.6,-0.7,1.8,2470.372,13.33,0.028,36.5
2019-11-15T08:25:03,42.805,6.029,0.049,0.022,-0.061,100.0,106.0,98.0,13.4,1505.3,325.4,-0.8,1.8,2470.39,13.33,0.053,65.8
2019-11-15T08:28:03,42.805,6.029,0.037,0.011,-0.019,102.0,106.0,98.0,13.4,1505.3,326.6,-0.7,1.8,2470.344,13.33,0.038,73.4
2019-11-15T08:31:03,42.805,6.029,0.05,0.025,-0.025,101.0,107.0,98.0,13.3,1505.3,324.3,-0.7,1.9,2470.399,13.33,0.055,63.4
2019-11-15T08:34:03,42.805,6.029,0.06,-0.006,-0.059,101.0,107.0,97.0,13.4,1505.3,328.5,-0.7,1.8,2470.358,13.33,0.06,95.7
2019-11-15T08:37:03,42.805,6.029,0.053,0.022,-0.033,100.0,106.0,98.0,13.4,1505.3,328.2,-0.7,1.8,2470.385,13.33,0.057,67.5
2019-11-15T08:40:03,42.805,6.029,0.03,0.025,-0.052,101.0,106.0,99.0,13.4,1505.3,324.3,-0.7,1.8,2470.353,13.33,0.039,50.2
2019-11-15T08:43:03,42.805,6.029,0.061,0.019,0.001,99.0,106.0,98.0,13.3,1505.3,323.4,-0.7,1.8,2470.345,13.33,0.063,72.7
2019-11-15T08:46:03,42.805,6.029,0.023,0.027,-0.023,100.0,106.0,98.0,13.4,1505.3,324.7,-0.7,1.8,2470.385,13.33,0.035,40.4
2019-11-15T08:49:03,42.805,6.029,-0.003,0.021,-0.056,100.0,106.0,98.0,13.3,1505.3,323.5,-0.7,1.8,2470.36,13.33,0.021,351.9
2019-11-15T08:52:03,42.805,6.029,0.043,0.006,-0.01,103.0,105.0,99.0,13.4,1505.3,324.7,-0.7,1.8,2470.343,13.33,0.043,82.1
2019-11-15T08:55:03,42.805,6.029,-0.003,0.021,-0.059,100.0,105.0,99.0,13.3,1505.3,326.3,-0.7,1.8,2470.35,13.33,0.021,351.9
2019-11-15T08:58:03,42.805,6.029,0.011,0.022,-0.043,101.0,106.0,99.0,13.3,1505.3,326.8,-0.7,1.9,2470.317,13.33,0.024,26.6
2019-11-15T09:04:03,42.805,6.029,0.017,-0.016,-0.044,101.0,107.0,100.0,13.3,1505.3,327.0,-0.7,1.8,2470.369,13.31,0.023,133.3
2019-11-15T09:07:03,42.805,6.029,0.017,0.014,-0.054,100.0,107.0,98.0,13.4,1505.3,327.3,-0.7,1.8,2470.37,13.32,0.022,50.5
2019-11-15T09:10:03,42.805,6.029,0.022,0.01,-0.072,100.0,106.0,98.0,13.4,1505.3,325.2,-0.7,1.8,2470.346,13.32,0.024,65.6
2019-11-15T09:13:03,42.805,6.029,0.013,0.019,-0.045,101.0,107.0,98.0,13.4,1505.3,328.1,-0.7,1.8,2470.34,13.32,0.023,34.4
2019-11-15T09:16:03,42.805,6.029,0.0,0.014,-0.05,101.0,106.0,98.0,13.4,1505.3,324.1,-0.7,1.8,2470.352,13.33,0.014,0.0
2019-11-15T09:19:03,42.805,6.029,-0.001,0.01,-0.119,101.0,107.0,98.0,13.4,1505.3,328.1,-0.7,1.9,2470.374,13.33,0.01,354.3
2019-11-15T09:22:03,42.805,6.029,-0.007,0.021,-0.078,99.0,106.0,98.0,13.4,1505.3,326.7,-0.7,1.8,2470.391,13.33,0.022,341.6
2019-11-15T09:25:03,42.805,6.029,0.004,0.023,-0.06,100.0,106.0,99.0,13.3,1505.3,327.4,-0.7,1.8,2470.373,13.33,0.023,9.9
2019-11-15T09:28:03,42.805,6.029,0.012,0.022,-0.044,100.0,107.0,99.0,13.4,1505.3,322.9,-0.7,1.8,2470.356,13.33,0.025,28.6
2019-11-15T09:31:03,42.805,6.029,-0.021,0.01,-0.081,100.0,107.0,99.0,13.4,1505.3,324.6,-0.7,1.8,2470.326,13.33,0.023,295.5
2019-11-15T09:34:03,42.805,6.029,-0.016,0.004,-0.059,99.0,106.0,97.0,13.4,1505.3,324.4,-0.7,1.8,2470.344,13.33,0.016,284.0
2019-11-15T09:37:03,42.805,6.029,0.013,0.027,-0.07,102.0,107.0,98.0,13.3,1505.3,326.7,-0.7,1.8,2470.334,13.33,0.029,25.7
2019-11-15T09:40:03,42.805,6.029,0.002,0.003,-0.054,102.0,108.0,98.0,13.4,1505.3,328.2,-0.7,1.8,2470.359,13.33,0.003,33.7
2019-11-15T09:43:03,42.805,6.029,-0.005,0.009,-0.044,101.0,106.0,99.0,13.4,1505.3,323.4,-0.7,1.8,2470.372,13.33,0.01,330.9
2019-11-15T09:46:03,42.805,6.029,-0.016,0.005,-0.07,100.0,106.0,98.0,13.4,1505.3,325.7,-0.7,1.8,2470.368,13.33,0.016,287.4
2019-11-15T09:49:03,42.805,6.029,0.021,0.004,-0.04,98.0,107.0,99.0,13.4,1505.3,324.4,-0.7,1.8,2470.346,13.33,0.021,79.2
2019-11-15T09:52:03,42.805,6.029,0.01,0.03,-0.028,100.0,105.0,99.0,13.4,1505.3,327.1,-0.7,1.8,2470.326,13.33,0.031,18.4
2019-11-15T09:55:03,42.805,6.029,-0.008,0.004,-0.061,100.0,106.0,98.0,13.4,1505.3,325.0,-0.7,1.8,2470.341,13.33,0.008,296.6
2019-11-15T09:58:03,42.805,6.029,0.005,-0.008,-0.061,101.0,107.0,98.0,13.4,1505.3,326.9,-0.8,1.8,2470.324,13.33,0.009,148.0
2019-11-15T10:04:03,42.805,6.029,0.01,0.008,-0.046,101.0,107.0,99.0,13.4,1505.3,327.4,-0.8,1.8,2470.38,13.32,0.012,51.3
2019-11-15T10:07:03,42.805,6.029,0.007,0.007,-0.053,100.0,106.0,98.0,13.3,1505.3,323.4,-0.7,1.8,2470.385,13.32,0.009,45.0
2019-11-15T10:10:03,42.805,6.029,0.003,-0.005,-0.038,99.0,107.0,99.0,13.3,1505.3,324.9,-0.7,1.9,2470.395,13.33,0.005,149.0
2019-11-15T10:13:03,42.805,6.029,-0.003,-0.001,-0.078,101.0,106.0,98.0,13.3,1505.3,324.7,-0.7,1.8,2470.338,13.33,0.003,251.6
2019-11-15T10:16:03,42.805,6.029,0.001,-0.008,-0.064,100.0,106.0,98.0,13.4,1505.3,324.1,-0.7,1.8,2470.317,13.33,0.008,172.9